User: anonymous   Login
Location: Unspecified
(43.4680°N, 87.1740°E)
Time: 18:20:15
(UTC+00:00)
Language:

Cosmos 2298 Rocket - Orbit

View from above orbital plane
View from above orbital plane
View from above satellite
View from above satellite

Ground track
Ground track

The orbit data is extracted from the following two-line orbital elements,

1 23432U 94083B   21171.38201637  .00000007  00000-0  12050-4 0  9999
2 23432  74.0311 140.2911 0005581 341.5479 130.2046 14.33560882385880
Epoch (UTC): 20 June 2021 09:10:06
Eccentricity: 0.0005581
inclination: 74.0311°
perigee height: 776 km
apogee height: 784 km
right ascension of ascending node: 140.2911°
argument of perigee: 341.5479°
revolutions per day: 14.33560882
mean anomaly at epoch: 130.2046°
orbit number at epoch: 38588

The dashed part of the orbit path shows where the satellite is in the earth's shadow,  

DLR